TimeEDT,TemperatureF,Dew PointF,Humidity,Sea Level PressureIn,VisibilityMPH,Wind Direction,Wind SpeedMPH,Gust SpeedMPH,PrecipitationIn,Events,Conditions,WindDirDegrees,DateUTC
12:15 AM,50.0,50.0,100,30.21,7.0,North,-9999.0,-,N/A,,Clear,0,2013-09-15 04:15:00
12:35 AM,49.6,49.6,100,30.22,7.0,North,-9999.0,-,N/A,,Clear,0,2013-09-15 04:35:00
12:55 AM,49.5,49.5,100,30.22,7.0,North,-9999.0,-,N/A,,Clear,0,2013-09-15 04:55:00
1:15 AM,49.3,49.3,100,30.22,7.0,North,-9999.0,-,N/A,,Clear,0,2013-09-15 05:15:00
1:35 AM,49.1,49.1,100,30.22,7.0,North,-9999.0,-,N/A,,Clear,0,2013-09-15 05:35:00
1:55 AM,49.1,49.1,100,30.22,7.0,North,-9999.0,-,N/A,,Scattered Clouds,0,2013-09-15 05:55:00
2:15 AM,50.2,50.2,100,30.22,1.8,North,-9999.0,-,N/A,,Overcast,0,2013-09-15 06:15:00
2:35 AM,50.0,50.0,100,30.22,1.2,North,-9999.0,-,N/A,,Overcast,0,2013-09-15 06:35:00
2:55 AM,49.6,49.6,100,30.21,4.0,North,-9999.0,-,N/A,,Overcast,0,2013-09-15 06:55:00
3:15 AM,49.3,49.3,100,30.21,1.0,North,-9999.0,-,N/A,,Overcast,0,2013-09-15 07:15:00
3:35 AM,49.3,49.3,100,30.21,0.8,North,-9999.0,-,N/A,,Overcast,0,2013-09-15 07:35:00
3:55 AM,49.1,49.1,100,30.21,1.0,North,-9999.0,-,N/A,,Overcast,0,2013-09-15 07:55:00
4:15 AM,49.1,49.1,100,30.21,1.2,North,-9999.0,-,N/A,,Overcast,0,2013-09-15 08:15:00
4:35 AM,49.3,49.3,100,30.22,0.8,North,-9999.0,-,N/A,,Overcast,0,2013-09-15 08:35:00
4:55 AM,48.6,48.6,100,30.22,5.0,North,-9999.0,-,N/A,,Overcast,0,2013-09-15 08:55:00
5:15 AM,48.2,48.2,100,30.22,5.0,North,-9999.0,-,N/A,,Overcast,0,2013-09-15 09:15:00
5:35 AM,47.8,47.8,100,30.23,7.0,North,-9999.0,-,N/A,,Overcast,0,2013-09-15 09:35:00
5:55 AM,48.2,48.2,100,30.23,10.0,North,-9999.0,-,N/A,,Overcast,0,2013-09-15 09:55:00
6:15 AM,47.3,47.3,100,30.24,4.0,North,-9999.0,-,N/A,,Mostly Cloudy,0,2013-09-15 10:15:00
6:35 AM,47.3,47.3,100,30.24,7.0,North,-9999.0,-,N/A,,Mostly Cloudy,0,2013-09-15 10:35:00
6:55 AM,47.1,47.1,100,30.25,7.0,North,-9999.0,-,N/A,,Overcast,0,2013-09-15 10:55:00
7:15 AM,46.9,46.9,100,30.25,7.0,North,-9999.0,-,N/A,,Mostly Cloudy,0,2013-09-15 11:15:00
7:35 AM,46.8,46.8,100,30.25,7.0,North,-9999.0,-,N/A,,Scattered Clouds,0,2013-09-15 11:35:00
7:55 AM,47.3,47.3,100,30.26,7.0,North,-9999.0,-,N/A,,Clear,0,2013-09-15 11:55:00
8:15 AM,48.0,48.0,100,30.26,10.0,North,-9999.0,-,N/A,,Clear,0,2013-09-15 12:15:00
8:35 AM,49.3,49.3,100,30.26,10.0,North,-9999.0,-,N/A,,Clear,0,2013-09-15 12:35:00
8:55 AM,51.1,51.1,100,30.26,10.0,North,-9999.0,-,N/A,,Scattered Clouds,0,2013-09-15 12:55:00
9:15 AM,53.8,53.8,100,30.27,10.0,North,-9999.0,-,N/A,,Scattered Clouds,0,2013-09-15 13:15:00
9:35 AM,56.5,56.5,100,30.27,10.0,North,-9999.0,-,N/A,,Scattered Clouds,0,2013-09-15 13:35:00
9:55 AM,60.6,58.3,92,30.27,10.0,North,-9999.0,-,N/A,,Clear,0,2013-09-15 13:55:00
10:15 AM,63.1,57.7,83,30.28,10.0,North,-9999.0,-,N/A,,Clear,0,2013-09-15 14:15:00
10:35 AM,66.4,57.9,74,30.28,10.0,North,-9999.0,-,N/A,,Scattered Clouds,0,2013-09-15 14:35:00
10:55 AM,69.1,59.0,70,30.28,10.0,North,-9999.0,-,N/A,,Scattered Clouds,0,2013-09-15 14:55:00
11:15 AM,69.8,59.2,69,30.28,10.0,North,-9999.0,-,N/A,,Mostly Cloudy,0,2013-09-15 15:15:00
11:35 AM,71.8,60.4,67,30.27,10.0,North,-9999.0,-,N/A,,Scattered Clouds,0,2013-09-15 15:35:00
11:55 AM,73.6,60.1,63,30.27,10.0,North,-9999.0,-,N/A,,Clear,0,2013-09-15 15:55:00
12:15 PM,74.5,60.8,62,30.27,10.0,North,-9999.0,-,N/A,,Clear,0,2013-09-15 16:15:00
12:35 PM,74.7,59.9,60,30.26,10.0,North,-9999.0,-,N/A,,Scattered Clouds,0,2013-09-15 16:35:00
12:55 PM,75.4,60.4,60,30.25,10.0,North,-9999.0,-,N/A,,Mostly Cloudy,0,2013-09-15 16:55:00
1:15 PM,74.3,59.4,60,30.25,10.0,North,-9999.0,-,N/A,,Scattered Clouds,0,2013-09-15 17:15:00
1:35 PM,75.4,59.2,57,30.25,10.0,North,-9999.0,-,N/A,,Mostly Cloudy,0,2013-09-15 17:35:00
1:55 PM,76.1,60.4,58,30.24,10.0,North,-9999.0,-,N/A,,Mostly Cloudy,0,2013-09-15 17:55:00
2:15 PM,76.5,58.6,54,30.24,10.0,North,-9999.0,-,N/A,,Scattered Clouds,0,2013-09-15 18:15:00
2:35 PM,75.4,60.8,60,30.23,10.0,North,-9999.0,-,N/A,,Mostly Cloudy,0,2013-09-15 18:35:00
2:55 PM,75.6,59.5,57,30.22,10.0,North,-9999.0,-,N/A,,Mostly Cloudy,0,2013-09-15 18:55:00
3:15 PM,77.2,58.5,52,30.22,10.0,North,-9999.0,-,N/A,,Scattered Clouds,0,2013-09-15 19:15:00
3:35 PM,76.3,59.0,55,30.21,10.0,North,-9999.0,-,N/A,,Scattered Clouds,0,2013-09-15 19:35:00
3:55 PM,77.5,58.6,52,30.20,10.0,North,-9999.0,-,N/A,,Scattered Clouds,0,2013-09-15 19:55:00
4:15 PM,76.5,60.1,57,30.20,10.0,North,-9999.0,-,N/A,,Scattered Clouds,0,2013-09-15 20:15:00
4:35 PM,74.3,64.4,71,30.20,10.0,North,-9999.0,-,N/A,,Scattered Clouds,0,2013-09-15 20:35:00
4:55 PM,76.3,59.7,56,30.19,10.0,North,-9999.0,-,N/A,,Scattered Clouds,0,2013-09-15 20:55:00
5:15 PM,76.3,63.0,63,30.19,10.0,North,-9999.0,-,N/A,,Clear,0,2013-09-15 21:15:00
5:35 PM,73.8,64.4,72,30.20,10.0,North,-9999.0,-,N/A,,Clear,0,2013-09-15 21:35:00
5:55 PM,70.3,63.7,79,30.19,10.0,North,-9999.0,-,N/A,,Clear,0,2013-09-15 21:55:00
6:15 PM,68.4,63.7,85,30.19,10.0,North,-9999.0,-,N/A,,Scattered Clouds,0,2013-09-15 22:15:00
6:35 PM,67.1,63.1,87,30.19,10.0,North,-9999.0,-,N/A,,Clear,0,2013-09-15 22:35:00
6:55 PM,66.0,63.0,90,30.19,10.0,North,-9999.0,-,N/A,,Clear,0,2013-09-15 22:55:00
7:15 PM,64.8,62.6,93,30.19,10.0,North,-9999.0,-,N/A,,Clear,0,2013-09-15 23:15:00
7:35 PM,63.7,62.2,95,30.19,10.0,North,-9999.0,-,N/A,,Clear,0,2013-09-15 23:35:00
7:55 PM,62.8,61.7,96,30.19,10.0,North,-9999.0,-,N/A,,Clear,0,2013-09-15 23:55:00
8:15 PM,61.7,61.2,98,30.19,10.0,North,-9999.0,-,N/A,,Clear,0,2013-09-16 00:15:00
8:35 PM,61.5,61.2,99,30.20,10.0,North,-9999.0,-,N/A,,Clear,0,2013-09-16 00:35:00
8:55 PM,60.8,60.4,99,30.20,7.0,North,-9999.0,-,N/A,,Clear,0,2013-09-16 00:55:00
9:15 PM,60.3,60.3,100,30.20,7.0,North,-9999.0,-,N/A,,Clear,0,2013-09-16 01:15:00
9:35 PM,59.9,59.9,100,30.20,7.0,North,-9999.0,-,N/A,,Clear,0,2013-09-16 01:35:00
9:55 PM,59.4,59.4,100,30.20,5.0,North,-9999.0,-,N/A,,Clear,0,2013-09-16 01:55:00
10:15 PM,59.2,59.2,100,30.20,5.0,North,-9999.0,-,N/A,,Clear,0,2013-09-16 02:15:00
10:35 PM,59.0,59.0,100,30.21,4.0,North,-9999.0,-,N/A,,Clear,0,2013-09-16 02:35:00
10:55 PM,58.6,58.6,100,30.21,4.0,North,-9999.0,-,N/A,,Clear,0,2013-09-16 02:55:00
11:15 PM,58.1,58.1,100,30.21,5.0,North,-9999.0,-,N/A,,Clear,0,2013-09-16 03:15:00
11:35 PM,58.1,58.1,100,30.20,4.0,North,-9999.0,-,N/A,,Clear,0,2013-09-16 03:35:00
11:55 PM,57.4,57.4,100,30.20,4.0,North,-9999.0,-,N/A,,Clear,0,2013-09-16 03:55:00